Home > Time Zones > World Clock > Weather > India > Thane > Past weeks

Flag for India Weather past 2 weeks in Thane, Maharashtra, India

Now
79 °F

Clear.


Feels Like: 80 °F
Forecast: 72 / 95 °F
Wind: No wind

Location: Bombay / Santacruz

Current Time: Mar 6, 2015 at 12:15:17 AM

Latest Report: Mar 5, 2015 at 10:40 PM


Visibility: 1 mi

Pressure: 29.95 "Hg

Humidity: 48%

Dew point: 57 °F

Location of ThaneLocation

Historic Weather in Thane — Graph

°F

Thane temperature yesterday

Maximum temperature yesterday: 86 °F (at 11:40 AM)
Minimum temperature yesterday: 70 °F (at 4:40 AM)
Average temperature yesterday: 79 °F

Past Weeks' High & Low Weather Summary

 TemperatureHumidityPressure
High102 °F (Feb 21, 3:40 PM)100% (Feb 27, 4:40 AM)30.04 "Hg (Feb 27, 4:40 AM)
Low68 °F (Feb 28, 11:40 PM)12% (Feb 21, 3:40 PM)29.71 "Hg (Mar 1, 4:40 PM)
Average79 °F59%29.87 "Hg
* Reported Feb 18 11:40 PM — Mar 5 10:40 PM, Thane, Weather by CustomWeather, © 2015

Note: Actual official high and low records may vary slightly from our data, if they occured in-between our weather recording intervals... More about our weather records

Advertising

Thane weather history for previous 24 hours

 ConditionsComfort  
Time TempWeatherWind HumidityBarometerVisibility
10:40 PM
Thu, Mar 5
79 °FClear.No wind48%29.95 "Hg1 mi
9:40 PM79 °FClear.No wind45%29.92 "Hg2 mi
8:40 PM81 °FClear.6 mph39%29.92 "Hg2 mi
6:40 PM82 °FClear.7 mph48%29.86 "Hg2 mi
5:40 PM84 °FClear.10 mph45%29.86 "Hg2 mi
4:40 PM86 °FClear.12 mph43%29.86 "Hg2 mi
3:40 PM86 °FClear.12 mph40%29.86 "Hg2 mi
12:40 PM86 °FClear.9 mph40%29.92 "Hg1 mi
11:40 AM86 °FClear.6 mph27%29.95 "Hg1 mi
10:40 AM84 °FClear.6 mph35%29.98 "Hg1 mi
8:40 AM73 °FHaze.6 mph50%29.95 "Hg1 mi
5:40 AM70 °FHaze.No wind64%29.86 "Hg2 mi
4:40 AM70 °FClear.No wind60%29.86 "Hg2 mi
3:40 AM72 °FClear.No wind57%29.89 "Hg2 mi
2:40 AM72 °FClear.No wind53%29.89 "Hg2 mi
1:40 AM73 °FClear.3 mph53%29.92 "Hg2 mi
12:40 AM73 °FClear.5 mph53%29.92 "Hg2 mi
Weather by CustomWeather, © 2015

See weather overviewHow to use our weather pages